User: anonymous   Login
Location: Holcomb Observatory
(44.4922°N, 73.1654°W)
Time: 13:41:39
(UTC-05:00)
Language:

SL-16 R/B - Orbit

View from above orbital plane
View from above orbital plane
View from above satellite
View from above satellite

Ground track
Ground track

The orbit data is extracted from the following two-line orbital elements,

1 27006U 01056F   15063.91580729  .00000024  00000-0  74164-4 0  9995
2 27006 099.1913 225.1620 0014176 333.2663 190.9938 13.70944836662044
Epoch (UTC): 04 March 2015 21:58:45
Eccentricity: 0.0014176
inclination: 99.1913°
perigee height: 986 km
apogee height: 1006 km
right ascension of ascending node: 225.1620°
argument of perigee: 333.2663°
revolutions per day: 13.70944836
mean anomaly at epoch: 190.9938°
orbit number at epoch: 66204

The dashed part of the orbit path shows where the satellite is in the earth's shadow,  

DLR